[[{"header":{"parameterUnit":"m.s-1","parameterCategory":1,"la1":30.2991,"la2":30.254,"lo1":-89.0895,"lo2":-89.0444,"dy":0.0017,"dx":0.0017,"nx":28,"ny":28,"refTime":"2025-04-29T21:00:00:Z","depth":0,"parameterNumber":2,"parameterNumberName":"U-component_of_WINDS"},"data":[0,0,0,0,0,0,0,0,0,0,0,0,0,0,0,0,0,0,0,0,0,0,0,0,0,0,0,0,0,0,0,0,0,0,0,0,0,0,0,0,0,0,0,0,0,0,0,0,0,0,0,0,0,0,0,0,0,0,-3.7563,-3.7562,0,-3.7557,-3.7557,-3.7557,-3.7514,-3.7513,-3.7512,-3.7511,-3.7505,-3.7506,-3.7507,0,0,0,0,0,0,0,0,0,0,0,0,0,-3.7538,-3.7538,-3.7563,-3.7562,-3.7562,-3.7557,-3.7557,-3.7557,-3.7514,-3.7513,-3.7512,-3.751,-3.7505,-3.7506,-3.7507,0,0,0,0,0,0,0,0,0,0,0,0,0,-3.7542,-3.7538,-3.7563,-3.754,-3.7538,-3.7557,-3.7557,-3.7557,-3.7514,-3.7513,-3.7511,-3.751,-3.7505,-3.7506,-3.7507,-3.7547,0,0,-3.7511,-3.7512,0,0,0,0,0,0,0,0,-3.7542,-3.7543,-3.7544,-3.7542,-3.754,-3.7535,-3.7546,-3.7553,-3.7515,-3.7524,-3.7511,-3.7509,-3.7516,-3.7517,-3.7519,-3.7546,-3.7546,-3.7511,-3.7512,-3.7512,-3.7513,0,0,0,0,0,0,0,-3.7541,-3.7543,-3.756,-3.7544,-3.7541,-3.7531,-3.753,-3.7547,-3.7529,-3.7523,-3.752,-3.752,-3.7515,-3.7518,-3.7519,-3.7546,-3.7511,-3.7512,-3.7513,-3.7514,-3.7607,-3.7608,0,0,0,0,0,0,-3.7544,-3.7543,-3.756,-3.756,-3.7537,-3.7533,-3.7532,-3.7538,-3.7529,-3.7526,-3.7521,-3.7518,-3.7517,-3.7517,-3.7518,-3.7564,-3.7512,-3.7514,-3.7514,-3.7605,-3.7607,-3.7609,0,0,0,0,0,0,-3.7544,-3.7546,-3.7561,-3.7551,-3.7552,-3.7535,-3.7542,-3.7539,-3.7541,-3.7527,-3.7524,-3.7527,-3.7515,-3.7516,-3.754,-3.7563,-3.7514,-3.7515,-3.7603,-3.7606,-3.7608,-3.7655,0,0,0,0,0,0,-3.7543,-3.7546,-3.756,-3.7551,-3.7553,-3.7582,-3.7544,-3.754,-3.7544,-3.7539,-3.7532,-3.7529,-3.7514,-3.7538,-3.7541,-3.7564,-3.7516,-3.7601,-3.7604,-3.7607,-3.7651,-3.7659,-3.7665,0,0,0,0,0,-3.7542,-3.7574,-3.7561,-3.7564,-3.757,-3.7584,-3.7584,-3.7566,-3.7546,-3.756,-3.7551,-3.753,-3.7561,-3.7541,-3.7544,-3.7567,-3.7599,-3.7603,-3.7607,-3.7648,-3.7657,-3.7665,0,0,0,0,0,0,-3.7585,-3.7572,-3.7558,-3.7587,-3.7587,-3.7576,-3.7594,-3.7576,-3.7582,-3.7577,-3.7555,-3.7553,-3.7581,-3.7577,-3.7555,-3.7606,-3.7576,-3.7581,-3.7607,-3.7615,-3.7622,-3.7622,-3.7517,0,0,0,0,0,-3.7598,-3.761,-3.7598,-3.7625,-3.7626,-3.761,-3.7615,-3.7602,-3.76,-3.76,-3.7593,-3.7593,-3.7602,-3.7609,-3.7617,-3.7652,-3.7649,-3.7669,-3.7676,-3.7682,-3.7686,-3.7704,-3.7713,-3.7622,-3.7622,-3.7621,0,0,-3.7625,-3.7619,-3.7628,-3.7634,-3.7632,-3.7645,-3.761,-3.7625,-3.7635,-3.7602,-3.7624,-3.7619,-3.7618,-3.7647,-3.766,-3.7644,-3.7711,-3.7687,-3.7692,-3.7692,-3.7709,-3.7717,-3.7725,-3.7624,-3.7624,-3.7623,0,0,-3.7679,-3.7677,-3.7699,-3.7698,-3.7696,-3.7686,-3.7692,-3.7684,-3.768,-3.7701,-3.7677,-3.7689,-3.7706,-3.7706,-3.7708,-3.7766,-3.7747,-3.777,-3.7806,-3.7824,-3.7831,-3.7837,-3.7857,-3.7865,-3.7774,-3.7774,-3.7774,0,-3.7712,-3.7731,-3.7712,-3.773,-3.7733,-3.7705,-3.7728,-3.7728,-3.7729,-3.7732,-3.7716,-3.7738,-3.7735,-3.7764,-3.7778,-3.7781,-3.7787,-3.7769,-3.7832,-3.7838,-3.7843,-3.7862,-3.787,-3.7777,-3.7777,-3.7776,-3.7776,0,-3.7772,-3.7785,-3.7804,-3.7806,-3.7812,-3.7831,-3.7817,-3.7825,-3.7812,-3.7804,-3.7827,-3.7823,-3.783,-3.7836,-3.7823,-3.7864,-3.7855,-3.7836,-3.7805,-3.7855,-3.7872,-3.7879,-3.7781,-3.778,-3.7779,-3.7778,0,0,-3.785,-3.7843,-3.785,-3.7851,-3.7848,-3.7859,-3.7878,-3.7886,-3.7893,-3.7896,-3.7911,-3.7928,-3.791,-3.7913,-3.79,-3.7916,-3.7962,-3.7895,-3.7895,-3.7907,-3.8007,-3.802,-3.8029,-3.795,-3.7952,-3.7953,-3.8007,0,-3.7902,-3.7934,-3.7919,-3.7953,-3.7966,-3.7941,-3.7958,-3.7959,-3.7952,-3.7963,-3.7956,-3.7967,-3.7944,-3.7945,-3.7961,-3.7953,-3.7982,-3.795,-3.7964,-3.7965,-3.7963,-3.8038,-3.8052,-3.8103,-3.8014,-3.8015,-3.8016,0,-3.7966,-3.7971,-3.8007,-3.8003,-3.8008,-3.8023,-3.8029,-3.804,-3.804,-3.8035,-3.8039,-3.8023,-3.8043,-3.8015,-3.8041,-3.802,-3.8025,-3.8023,-3.8025,-3.8024,-3.7992,-3.8038,-3.8119,-3.8126,-3.8026,-3.8025,-3.8025,0,-3.8019,-3.8035,-3.8059,-3.8061,-3.8057,-3.8068,-3.8067,-3.8066,-3.8072,-3.8078,-3.8082,-3.809,-3.8094,-3.8101,-3.8088,-3.8069,-3.8117,-3.8088,-3.8112,-3.8113,-3.8122,-3.8121,-3.8203,-3.8128,-3.8128,-3.8128,-3.8128,0,-3.8077,-3.8099,-3.8082,-3.8097,-3.8121,-3.8105,-3.813,-3.8127,-3.8127,-3.814,-3.812,-3.8133,-3.8116,-3.8128,-3.8118,-3.8142,-3.8144,-3.814,-3.8137,-3.8141,-3.8141,-3.8143,-3.8138,-3.813,-3.813,-3.8129,-3.8129,0,-3.8139,-3.8128,-3.8152,-3.8147,-3.8147,-3.8165,-3.8161,-3.8175,-3.8168,-3.8186,-3.8189,-3.8178,-3.8191,-3.818,-3.8192,-3.8186,-3.8217,-3.821,-3.8217,-3.8214,-3.8239,-3.8236,-3.8324,-3.8334,-3.8254,-3.8255,-3.8255,0,-3.8176,-3.8192,-3.819,-3.8198,-3.8198,-3.8211,-3.8217,-3.8203,-3.821,-3.8213,-3.8227,-3.8238,-3.8246,-3.8268,-3.8262,-3.8272,-3.8263,-3.8294,-3.8265,-3.8268,-3.8263,-3.8261,-3.8263,-3.8299,-3.83,-3.83,-3.8301,0,-3.8242,-3.8237,-3.8247,-3.8255,-3.8264,-3.8269,-3.8274,-3.8282,-3.8267,-3.8277,-3.829,-3.8296,-3.831,-3.8321,-3.833,-3.8329,-3.8313,-3.8311,-3.8317,-3.832,-3.8323,-3.8321,-3.8231,-3.8308,-3.8307,-3.8307,-3.8306,-3.8306,-3.8292,-3.8306,-3.8307,-3.8319,-3.8321,-3.8326,-3.8339,-3.8334,-3.8345,-3.8355,-3.8346,-3.8362,-3.8364,-3.8374,-3.8375,-3.8388,-3.8375,-3.8384,-3.8386,-3.8388,-3.8392,-3.8323,-3.8389,-3.8389,-3.8389,-3.8389,-3.8389,0,-3.8357,-3.8357,-3.8368,-3.8375,-3.8385,-3.8371,-3.8375,-3.8384,-3.8399,-3.8402,-3.8411,-3.8427,-3.8439,-3.8434,-3.8445,-3.8456,-3.8449,-3.8459,-3.8457,-3.8457,-3.8403,-3.8396,-3.8465,-3.8465,-3.8465,-3.8465,-3.8465,-3.8465,-3.8392,-3.8415,-3.841,-3.8434,-3.8434,-3.845,-3.8454,-3.8459,-3.8461,-3.848,-3.849,-3.8487,-3.8488,-3.8498,-3.8509,-3.8507,-3.8512,-3.8524,-3.852,-3.8469,-3.8461,-3.8454,-3.8447,-3.8526,-3.8526,-3.8574,-3.8574,-3.8574]},{"header":{"parameterUnit":"m.s-1","parameterCategory":1,"la1":30.2991,"la2":30.254,"lo1":-89.0895,"lo2":-89.0444,"dy":0.0017,"dx":0.0017,"nx":28,"ny":28,"refTime":"2025-04-29T21:00:00:Z","depth":0,"parameterNumber":3,"parameterNumberName":"V-component_of_WINDS"},"data":[0,0,0,0,0,0,0,0,0,0,0,0,0,0,0,0,0,0,0,0,0,0,0,0,0,0,0,0,0,0,0,0,0,0,0,0,0,0,0,0,0,0,0,0,0,0,0,0,0,0,0,0,0,0,0,0,0,0,4.5339,4.5339,0,4.5319,4.5319,4.5318,4.5336,4.5337,4.5338,4.5339,4.5312,4.531,4.5309,0,0,0,0,0,0,0,0,0,0,0,0,0,4.5388,4.5387,4.5339,4.5339,4.5339,4.5319,4.5319,4.5318,4.5336,4.5337,4.5338,4.5339,4.5312,4.531,4.5309,0,0,0,0,0,0,0,0,0,0,0,0,0,4.5367,4.5387,4.5339,4.5345,4.5346,4.5319,4.5319,4.5318,4.5336,4.5337,4.5338,4.5339,4.5313,4.5311,4.5308,4.5273,0,0,4.5302,4.5301,0,0,0,0,0,0,0,0,4.5368,4.5365,4.5345,4.5345,4.5345,4.5332,4.5326,4.5303,4.5336,4.5339,4.5339,4.534,4.5317,4.5315,4.5308,4.5272,4.527,4.5302,4.5301,4.53,4.5299,0,0,0,0,0,0,0,4.5369,4.5366,4.5331,4.5344,4.5345,4.5347,4.5346,4.5322,4.5322,4.5339,4.5341,4.5338,4.5317,4.531,4.5308,4.527,4.5302,4.53,4.5299,4.5298,4.5204,4.5202,0,0,0,0,0,0,4.5371,4.5367,4.5332,4.533,4.536,4.5346,4.5344,4.5335,4.5322,4.5322,4.5337,4.5339,4.5313,4.531,4.5307,4.5264,4.53,4.5298,4.5296,4.5205,4.5203,4.5202,0,0,0,0,0,0,4.5372,4.5368,4.5332,4.5349,4.5345,4.5344,4.5333,4.5334,4.5327,4.5321,4.532,4.533,4.5314,4.531,4.5282,4.5264,4.5297,4.5295,4.5206,4.5204,4.5203,4.5179,0,0,0,0,0,0,4.5373,4.5368,4.5356,4.5349,4.5344,4.5309,4.5332,4.5332,4.5324,4.5326,4.5314,4.5313,4.5314,4.5285,4.528,4.5261,4.5293,4.5208,4.5205,4.5203,4.5181,4.5177,4.5173,0,0,0,0,0,4.5375,4.5348,4.5355,4.535,4.5329,4.5308,4.5305,4.5309,4.5322,4.5309,4.5305,4.5314,4.5267,4.5282,4.5276,4.5257,4.5209,4.5206,4.5203,4.5183,4.5178,4.5173,0,0,0,0,0,0,4.535,4.5347,4.5355,4.5325,4.5317,4.5311,4.5295,4.5303,4.5289,4.5291,4.5295,4.5292,4.5262,4.5257,4.5274,4.5222,4.524,4.5236,4.5226,4.5221,4.5217,4.5218,4.5291,0,0,0,0,0,4.5342,4.5327,4.5325,4.5299,4.5295,4.5295,4.5287,4.5291,4.5281,4.5277,4.5272,4.5261,4.5244,4.5232,4.5216,4.5181,4.5178,4.5165,4.5161,4.5157,4.5153,4.5134,4.5128,4.5193,4.5193,4.5193,0,0,4.5323,4.532,4.531,4.5294,4.5288,4.5271,4.5292,4.5273,4.5261,4.5274,4.5248,4.5243,4.5231,4.52,4.5186,4.5194,4.5135,4.5154,4.5151,4.5149,4.5131,4.5125,4.5119,4.5191,4.5191,4.5192,0,0,4.5281,4.5277,4.5256,4.525,4.5242,4.5243,4.5238,4.5231,4.5229,4.5204,4.5214,4.5198,4.5168,4.5159,4.5151,4.5107,4.5114,4.5102,4.5078,4.506,4.5054,4.505,4.5034,4.5028,4.5098,4.5098,4.5098,0,4.5258,4.5235,4.5243,4.5224,4.5216,4.523,4.5208,4.5201,4.5187,4.5181,4.5191,4.5156,4.5148,4.5115,4.5105,4.5098,4.5091,4.5102,4.5055,4.5051,4.5046,4.5031,4.5025,4.5096,4.5097,4.5097,4.5097,0,4.5208,4.5192,4.5175,4.5164,4.5154,4.5133,4.5136,4.5126,4.5131,4.513,4.5104,4.5096,4.5079,4.5072,4.5075,4.5039,4.5045,4.5055,4.5073,4.5039,4.5024,4.5018,4.5094,4.5095,4.5095,4.5096,0,0,4.5147,4.5143,4.5136,4.5132,4.5125,4.5111,4.5091,4.5077,4.5067,4.5057,4.5039,4.5015,4.5025,4.5016,4.5019,4.5003,4.4968,4.5015,4.5015,4.5006,4.4927,4.4919,4.4912,4.4973,4.4972,4.4971,4.4928,0,4.5105,4.5072,4.5079,4.5045,4.503,4.5044,4.5026,4.5019,4.5018,4.5004,4.5002,4.4985,4.5,4.4994,4.4979,4.4976,4.4952,4.4979,4.4955,4.4954,4.4957,4.4905,4.4895,4.4855,4.4922,4.4922,4.4921,0,4.505,4.5041,4.5007,4.5003,4.4997,4.4981,4.4969,4.4956,4.4948,4.4948,4.4939,4.4945,4.4923,4.4943,4.4912,4.493,4.4921,4.4918,4.4916,4.4913,4.4935,4.4899,4.4842,4.4836,4.4912,4.4913,4.4913,0,4.5009,4.4988,4.4965,4.4961,4.4956,4.4945,4.4941,4.4935,4.4926,4.4915,4.4909,4.4894,4.4886,4.4874,4.4876,4.489,4.4844,4.4864,4.4843,4.4843,4.4831,4.4832,4.4771,4.4827,4.4827,4.4827,4.4827,0,4.496,4.4939,4.4947,4.4933,4.4909,4.4917,4.4892,4.4891,4.4885,4.4869,4.488,4.4865,4.4868,4.4853,4.4854,4.4828,4.4824,4.4823,4.4823,4.4822,4.4822,4.4815,4.4817,4.4826,4.4826,4.4826,4.4826,0,4.491,4.4915,4.4891,4.4889,4.4888,4.4871,4.4868,4.4854,4.4855,4.4835,4.4831,4.4831,4.4814,4.4815,4.4795,4.4795,4.4764,4.4768,4.4767,4.4768,4.4746,4.4748,4.4678,4.4669,4.4731,4.4731,4.473,0,4.4878,4.4862,4.486,4.4851,4.4848,4.4834,4.4826,4.4833,4.4824,4.4814,4.4801,4.4785,4.4773,4.4744,4.4741,4.4726,4.4729,4.4705,4.4726,4.4725,4.4728,4.4728,4.4726,4.4701,4.47,4.4699,4.4699,0,4.4821,4.4825,4.4814,4.4804,4.4794,4.4786,4.4778,4.477,4.4777,4.4765,4.4749,4.474,4.472,4.4704,4.4689,4.4684,4.4692,4.4693,4.4687,4.4684,4.4685,4.4684,4.4755,4.4694,4.4694,4.4695,4.4695,4.4695,4.4779,4.4765,4.4762,4.4749,4.4745,4.4738,4.4725,4.4726,4.4713,4.4699,4.4704,4.4685,4.4677,4.4659,4.4653,4.4637,4.4645,4.4637,4.4635,4.4632,4.463,4.4688,4.4635,4.4635,4.4635,4.4635,4.4635,0,4.4722,4.4721,4.4709,4.47,4.469,4.4701,4.4693,4.4683,4.4668,4.4661,4.465,4.4631,4.4615,4.4612,4.4597,4.4585,4.4588,4.4581,4.4581,4.458,4.4624,4.463,4.4578,4.4578,4.4578,4.4578,4.4578,4.4578,4.4691,4.4669,4.4673,4.4649,4.4647,4.4631,4.4626,4.4619,4.4614,4.4593,4.4582,4.4581,4.4575,4.456,4.4546,4.4545,4.4539,4.453,4.453,4.4571,4.4577,4.4582,4.4588,4.4528,4.4528,4.4488,4.4487,4.4487]}]]